Regional Weather Roundup
Issued by NWS Bismarck, ND

Home | Current Version | Previous Version | Text Only | Print | Product List | Glossary On
Versions: 1 2 3 4 5 6 7 8 9 10 11 12 13 14 15 16 17 18 19 20 21 22 23 24 25 26 27 28 29 30 31 32 33 34 35 36 37 38 39 40 41 42 43 44 45 46 47 48 49 50
000
ASUS43 KBIS 231320
RWRBIS

NWR BROADCAST TEXT
NATIONAL WEATHER SERVICE BISMARCK ND
700 AM CST SUN NOV 23 2014

NOTE: "FAIR" INDICATES FEW OR NO CLOUDS BELOW 12,000 FEET WITH NO
SIGNIFICANT WEATHER AND/OR OBSTRUCTIONS TO VISIBILITY.


CITY           SKY/WX    TMP DP  RH WIND       PRES   REMARKS
WILLISTON      LGT SNOW  22  16  78 NW17G36   29.54R WCI   8
MINOT          CLOUDY    31  19  61 W23G35    29.38R WCI  18
MINOT AFB      CLOUDY    29  19  66 W23G29    29.37R WCI  16
BISMARCK       CLOUDY    39  32  76 W21G26    29.46R
DICKINSON      CLOUDY    33  25  72 NW26G35   29.48R WCI  20
GARRISON         N/A     33  24  69 W25G37    29.42R
HETTINGER ARPT CLOUDY    36  27  69 W23G39    29.54R
JAMESTOWN      CLOUDY    39  33  79 W15       29.40S
BEACH          CLOUDY    32  27  80 NW31G41   29.56R WCI  17
CARRINGTON     CLOUDY    37  36  93 SW8       29.40S
CROSBY         CLOUDY    19  18  93 NW29G39   29.47R WCI   1
HARVEY         CLOUDY    36  32  87 W9        29.37S
HAZEN          CLOUDY    32  25  74 NW21G26   29.47R WCI  20
LINTON         CLOUDY    36  34  93 W13       29.47S
MANDAN         CLOUDY    37  30  75 W21G26    29.46R
OAKES            N/A     36  36 100 W6        29.44S
RUGBY          CLOUDY    37  32  81 W20G25    29.35R
STANLEY        FLURRIES  23  19  86 W21G33    29.41R WCI   8
TIOGA          LGT SNOW  19  19 100 W26G37    29.46R WCI   1
$$

CITY           SKY/WX    TMP DP  RH WIND       PRES   REMARKS
GRAND FORKS    CLOUDY    38  32  79 W7        29.36R
GRAND FORKS AF MIX PCPN  43  36  75 W13       29.36R
DEVILS LAKE    CLOUDY    37  27  65 SW10      29.35R
FARGO          CLOUDY    33  31  92 S6        29.40R FOG
CANDO          CLOUDY    37  32  81 W9G16     29.35R
CAVALIER       PTSUNNY   36  30  80 W5        29.34R
GRAFTON        PTSUNNY   36  32  87 W8        29.36R
GWINNER        CLOUDY    37  37 100 W12       29.44R
LANGDON        FAIR      30  27  86 SW9       29.32S
ROLLA          CLOUDY    32  32 100 SW7       29.33R
WALHALLA         N/A     36  32  87 W9        29.34R
$$

CITY           SKY/WX    TMP DP  RH WIND       PRES   REMARKS
ABERDEEN       CLOUDY    39  34  82 W14       29.47R
MOBRIDGE       MOCLDY    37  32  82 W14       29.49S
BUFFALO          N/A     35  25  66 W26       29.52R
RAPID CITY     CLEAR     36  18  48 NW17      29.65R
GLASGOW        LGT SNOW  26  21  81 NW25G33   29.67R VSB 1   WCI  11
SIDNEY         PTCLDY    27  19  74 W22G35    29.61R WCI  12
WOLF POINT     LGT SNOW  27  19  72 NW30G38   29.66R WCI  11
GLENDIVE       CLOUDY    30  21  69 W23G31    29.62R WCI  17
MILES CITY     PTCLDY    36  26  67 W25G33    29.68R
BAKER          MOCLDY    34  26  72 W28G36    29.59R
$$

CITY           SKY/WX    TMP DP  RH WIND       PRES   REMARKS
BILLINGS       PTCLDY    33  17  51 W18       29.81R
GREAT FALLS    CLOUDY    30  21  69 N7        29.85R
REGINA         FLURRIES  12   9  85 N26       29.59R WCI  -8
ESTEVAN        LGT SNOW  19  16  86 NW31G44   29.40R DRFTSNOWWCI   0
$$



USA.gov is the U.S. government's official web portal to all federal, state and local government web resources and services.